Weather History for Montevideo, MN

Change the Weather History Date:

Monday, November 19, 2012

  Actual Average Record
Temperature  
Mean Temperature 44 °F -  
Max Temperature 55 °F 38 °F 64 °F (1989)
Min Temperature 32 °F 22 °F -1 °F (1986)
Degree Days  
Heating Degree Days 21    
Moisture  
Dew Point 37 °F    
Average Humidity 73    
Maximum Humidity 100    
Minimum Humidity 54    
Precipitation  
Precipitation 0.00 in - - ()
Sea Level Pressure  
Sea Level Pressure 30.03 in    
Wind  
Wind Speed 8 mph (WNW)    
Max Wind Speed 13 mph    
Max Gust Speed 17 mph    
Visibility 10 miles    
Events      
Averages and records for this station are not official NWS values.
T = Trace of Precipitation, MM = Missing Value Source: NWS Daily Summary

Daily Weather History Graph

Daily Weather History Graph

Search for Another Location

Airport:

Trip Planner

Search our weather history database for the weather conditions in past years. The results will help you decide how hot, cold, wet, or windy it might be!

Date:

Astronomy

Nov. 19, 2012 Rise Set
Actual Time 7:26 AM CST 4:49 PM CST
Civil Twilight 6:54 AM CST 5:22 PM CST
Nautical Twilight 6:18 AM CST 5:57 PM CST
Astronomical Twilight 5:43 AM CST 6:32 PM CST
Moon 12:23 PM CST (11/19) 11:25 PM CST (11/19)
Length of Visible Light 10h 27m
Length of Day
9h 23m
Waxing Crescent, 41% of the Moon is Illuminated
Nov 19
Waxing Crescent
Nov 20
First Quarter
Nov 28
Full
Dec 6
Last Quarter
Dec 13
New

Hourly Weather History & Observations

Time (CST) Temp. Windchill Dew Point Humidity Pressure Visibility Wind Dir Wind Speed Gust Speed Precip Events Conditions
12:14 AM 46.4 °F 41.9 °F 35.6 °F 66% 29.98 in 10.0 mi SSW 9.2 mph - N/A   Clear
12:34 AM 46.4 °F 40.7 °F 35.6 °F 66% 29.98 in 10.0 mi SSW 12.7 mph 17.3 mph N/A   Clear
12:54 AM 46.4 °F 41.9 °F 35.6 °F 66% 29.98 in 10.0 mi South 9.2 mph - N/A   Clear
1:14 AM 44.6 °F 40.2 °F 35.6 °F 71% 29.98 in 10.0 mi South 8.1 mph - N/A   Clear
1:34 AM 44.6 °F 39.7 °F 35.6 °F 71% 29.98 in 10.0 mi South 9.2 mph - N/A   Clear
1:54 AM 44.6 °F 39.2 °F 35.6 °F 71% 29.97 in 10.0 mi South 10.4 mph - N/A   Clear
2:14 AM 42.8 °F 37.5 °F 35.6 °F 76% 29.98 in 10.0 mi South 9.2 mph - N/A   Clear
2:34 AM 44.6 °F 39.7 °F 35.6 °F 71% 29.98 in 10.0 mi South 9.2 mph - N/A   Clear
2:54 AM 44.6 °F 39.7 °F 35.6 °F 71% 29.97 in 10.0 mi South 9.2 mph - N/A   Clear
3:14 AM 44.6 °F 39.7 °F 35.6 °F 71% 29.96 in 10.0 mi South 9.2 mph - N/A   Clear
3:34 AM 44.6 °F 40.2 °F 35.6 °F 71% 29.97 in 10.0 mi SSW 8.1 mph - N/A   Clear
3:54 AM 44.6 °F 39.2 °F 35.6 °F 71% 29.96 in 10.0 mi South 10.4 mph - N/A   Clear
4:14 AM 44.6 °F 39.7 °F 35.6 °F 71% 29.96 in 10.0 mi South 9.2 mph - N/A   Clear
4:34 AM 44.6 °F 39.7 °F 37.4 °F 76% 29.96 in 10.0 mi SSW 9.2 mph - N/A   Clear
4:54 AM 44.6 °F 39.7 °F 37.4 °F 76% 29.96 in 10.0 mi SSW 9.2 mph - N/A   Clear
5:14 AM 42.8 °F 37.5 °F 37.4 °F 81% 29.96 in 10.0 mi South 9.2 mph - N/A   Clear
5:34 AM 44.6 °F 40.7 °F 37.4 °F 76% 29.98 in 10.0 mi South 6.9 mph - N/A   Mostly Cloudy
5:54 AM 44.6 °F 40.7 °F 37.4 °F 76% 29.98 in 10.0 mi South 6.9 mph - N/A   Overcast
6:14 AM 44.6 °F 39.7 °F 37.4 °F 76% 29.98 in 10.0 mi SSW 9.2 mph - N/A   Overcast
6:34 AM 44.6 °F 40.2 °F 37.4 °F 76% 29.98 in 10.0 mi SSW 8.1 mph - N/A   Mostly Cloudy
6:54 AM 42.8 °F 38.6 °F 37.4 °F 81% 29.98 in 10.0 mi SSW 6.9 mph - N/A   Clear
7:34 AM 42.8 °F 39.3 °F 37.4 °F 81% 29.99 in 10.0 mi South 5.8 mph - N/A   Clear
7:54 AM 42.8 °F 40.1 °F 37.4 °F 81% 30.00 in 10.0 mi SSW 4.6 mph - N/A   Clear
8:14 AM 42.8 °F 41.1 °F 37.4 °F 81% 30.00 in 10.0 mi South 3.5 mph - N/A   Clear
8:34 AM 42.8 °F 40.1 °F 37.4 °F 81% 30.00 in 10.0 mi South 4.6 mph - N/A   Clear
8:54 AM 44.6 °F 41.4 °F 37.4 °F 76% 30.00 in 10.0 mi South 5.8 mph - N/A   Clear
9:14 AM 44.6 °F 42.2 °F 37.4 °F 76% 30.01 in 10.0 mi SSW 4.6 mph - N/A   Clear
9:34 AM 46.4 °F 44.3 °F 37.4 °F 71% 30.01 in 10.0 mi SW 4.6 mph - N/A   Clear
9:54 AM 46.4 °F 43.5 °F 37.4 °F 71% 30.01 in 10.0 mi WSW 5.8 mph - N/A   Clear
10:14 AM 48.2 °F - 37.4 °F 66% 30.02 in 10.0 mi West 8.1 mph - N/A   Clear
10:34 AM 48.2 °F - 37.4 °F 66% 30.02 in 10.0 mi WNW 6.9 mph - N/A   Clear
10:53 AM 50.0 °F - 39.2 °F 66% 30.02 in 10.0 mi WNW 6.9 mph - N/A   Clear
11:14 AM 50.0 °F - 39.2 °F 66% 30.02 in 10.0 mi WNW 4.6 mph - N/A   Clear
11:34 AM 50.0 °F - 37.4 °F 62% 30.01 in 10.0 mi WNW 3.5 mph - N/A   Clear
11:54 AM 51.8 °F - 39.2 °F 62% 30.01 in 10.0 mi Calm Calm - N/A   Clear
12:14 PM 51.8 °F - 39.2 °F 62% 30.00 in 10.0 mi North 4.6 mph - N/A   Clear
12:34 PM 51.8 °F - 39.2 °F 62% 30.01 in 10.0 mi North 5.8 mph - N/A   Clear
12:54 PM 53.6 °F - 39.2 °F 58% 30.01 in 10.0 mi NNE 5.8 mph - N/A   Clear
1:14 PM 53.6 °F - 39.2 °F 58% 30.00 in 10.0 mi NNE 5.8 mph - N/A   Clear
1:34 PM 53.6 °F - 39.2 °F 58% 30.01 in 10.0 mi North 4.6 mph - N/A   Clear
1:54 PM 55.4 °F - 39.2 °F 54% 30.01 in 10.0 mi NW 4.6 mph - N/A   Clear
2:14 PM 53.6 °F - 39.2 °F 58% 30.01 in 10.0 mi NNE 4.6 mph - N/A   Clear
2:34 PM 55.4 °F - 39.2 °F 54% 30.02 in 10.0 mi North 8.1 mph - N/A   Clear
2:54 PM 55.4 °F - 39.2 °F 54% 30.02 in 10.0 mi NNE 8.1 mph - N/A   Clear
3:14 PM 55.4 °F - 39.2 °F 54% 30.03 in 10.0 mi North 5.8 mph - N/A   Clear
3:34 PM 53.6 °F - 39.2 °F 58% 30.03 in 10.0 mi NNW 8.1 mph - N/A   Clear
3:54 PM 53.6 °F - 41.0 °F 62% 30.04 in 10.0 mi North 9.2 mph - N/A   Clear
4:13 PM 53.6 °F - 39.2 °F 58% 30.05 in 10.0 mi North 9.2 mph - N/A   Clear
4:34 PM 51.8 °F - 39.2 °F 62% 30.06 in 10.0 mi North 11.5 mph - N/A   Clear
4:54 PM 50.0 °F - 39.2 °F 66% 30.06 in 10.0 mi North 9.2 mph - N/A   Clear
5:14 PM 48.2 °F - 39.2 °F 71% 30.07 in 10.0 mi North 9.2 mph - N/A   Clear
5:34 PM 46.4 °F 42.9 °F 39.2 °F 76% 30.08 in 10.0 mi North 6.9 mph - N/A   Clear
5:54 PM 46.4 °F 42.9 °F 39.2 °F 76% 30.08 in 10.0 mi North 6.9 mph - N/A   Clear
6:14 PM 44.6 °F 40.2 °F 39.2 °F 81% 30.09 in 10.0 mi North 8.1 mph - N/A   Clear
6:34 PM 44.6 °F 41.4 °F 37.4 °F 76% 30.10 in 10.0 mi North 5.8 mph - N/A   Clear
6:54 PM 44.6 °F 41.4 °F 37.4 °F 76% 30.10 in 10.0 mi North 5.8 mph - N/A   Clear
7:14 PM 42.8 °F 39.3 °F 37.4 °F 81% 30.10 in 10.0 mi North 5.8 mph - N/A   Scattered Clouds
7:34 PM 42.8 °F 38.6 °F 37.4 °F 81% 30.10 in 10.0 mi North 6.9 mph - N/A   Clear
7:54 PM 41.0 °F 36.4 °F 37.4 °F 87% 30.11 in 10.0 mi North 6.9 mph - N/A   Clear
8:14 PM 41.0 °F 35.8 °F 35.6 °F 81% 30.11 in 10.0 mi North 8.1 mph - N/A   Clear
8:34 PM 39.2 °F 33.6 °F 35.6 °F 87% 30.12 in 10.0 mi NNW 8.1 mph - N/A   Clear
9:14 PM 39.2 °F 33.0 °F 35.6 °F 87% 30.12 in 10.0 mi North 9.2 mph - N/A   Clear
9:34 PM 37.4 °F 31.4 °F 35.6 °F 93% 30.13 in 10.0 mi North 8.1 mph - N/A   Clear
9:54 PM 37.4 °F 30.8 °F 35.6 °F 93% 30.13 in 10.0 mi North 9.2 mph - N/A   Clear
10:14 PM 35.6 °F 28.6 °F 33.8 °F 93% 30.14 in 10.0 mi North 9.2 mph - N/A   Clear
10:34 PM 35.6 °F 28.6 °F 33.8 °F 93% 30.13 in 10.0 mi North 9.2 mph - N/A   Clear
10:54 PM 35.6 °F 29.2 °F 33.8 °F 93% 30.13 in 10.0 mi North 8.1 mph - N/A   Clear
11:14 PM 33.8 °F 28.6 °F 33.8 °F 100% 30.13 in 7.0 mi North 5.8 mph - N/A   Clear
11:34 PM 33.8 °F 28.6 °F 32.0 °F 93% 30.14 in 7.0 mi North 5.8 mph - N/A   Clear
11:54 PM 32.0 °F 26.4 °F 32.0 °F 100% 30.14 in 7.0 mi North 5.8 mph - N/A   Clear